Weather in Yekaterinovka

Russia / Krasnodar Krai     46°41′34″N   38°45′21″E
temp.,
°C
wind,
m/s
gust,
m/s
humid.,
%
clouds,
%
prec.,
mm/h
press.,
hPa
HPBL,
m
5 december, sun
sun500:00+6nne469098 0.0 1010123
03:00+8e3584100 0.4 1008146
06:00+9s51395100 6.4 1006670
09:00+9sw4997100 11.7 1007458
12:00+8wnw5694100 0.1 1009416
15:00+6wnw568798 0.1 1012415
18:00+5nw2386100 0.0 1014397
21:00+5wsw1287100 0.0 1016280
6 december, mon
mon600:00+5wsw2384100 0.0 1017433
03:00+5wsw2286100 0.0 1018286
06:00+5wsw118658 0.0 1018168
09:00+5ese12868 0.0 101992
12:00+6se3378100 0.0 1019286
15:00+8ese3478100 0.0 1019246
18:00+7e3683100 0.1 1019166
21:00+7ese4789100 0.1 1019150
7 december, tue
tue700:00+8se4888100 0.0 1019178
03:00+8ese4985100 0.0 1018180
06:00+8se4982100 0.0 1018165
09:00+7se4107361 0.0 1017171
12:00+12se5115455 0.0 1016276
15:00+13ese51251100 0.0 1013311
18:00+10ese6146498 0.0 1012295
21:00+9ese61473100 0.0 1011329
8 december, wed
wed800:00+8ese61378100 0.0 1010324
03:00+7ese61285100 0.0 1010286
06:00+6ese61188100 0.0 1008256
09:00+6ese51091100 0.0 1009234
12:00+10ese6872100 0.0 1008262
15:00+11ese5873100 0.0 1007241
18:00+9se4980100 0.0 1009176
21:00+10se51174100 0.0 1009235
9 december, thu
thu900:00+9sse497999 0.0 1010211
03:00+8ssw411935 0.0 1011257
06:00+9ssw61183100 0.1 1012751
09:00+9sw61183100 0.1 1014718
12:00+9sw7117992 0.0 1015838
15:00+9wsw6118293 0.0 1016795
18:00+8wsw61180100 0.0 1018840
21:00+7wsw6137465 0.0 1019731